�������l�o���
Date,Time,MP-1(��Sv/h),MP-2(��Sv/h),MP-3(��Sv/h),MP-4(��Sv/h),MP-5(��Sv/h),MP-6(��Sv/h),MP-7(��Sv/h),MP-8(��Sv/h),����,����(m/s),���J
2017/03/22,00:00,0.987,1.609,1.102,1.910,1.312,0.540,0.987,0.917,�k�k��,6.6,��
2017/03/22,00:10,0.992,1.610,1.103,1.910,1.316,0.542,0.985,0.917,�k�k��,8.2,��
2017/03/22,00:20,0.991,1.614,1.104,1.910,1.314,0.539,0.987,0.917,�k�k��,8.8,��
2017/03/22,00:30,0.989,1.615,1.103,1.910,1.314,0.540,0.988,0.919,�k�k��,8.3,��
2017/03/22,00:40,0.993,1.612,1.101,1.914,1.315,0.540,0.987,0.917,�k�k��,8.5,��
2017/03/22,00:50,0.990,1.613,1.102,1.913,1.314,0.539,0.990,0.918,�k�k��,6.6,��
2017/03/22,01:00,0.990,1.615,1.102,1.913,1.315,0.541,0.987,0.918,�k�k��,6.4,��
2017/03/22,01:10,0.990,1.614,1.103,1.911,1.315,0.540,0.988,0.918,�k�k��,7.7,��
2017/03/22,01:20,0.990,1.614,1.103,1.910,1.316,0.539,0.988,0.916,�k�k��,8.3,��
2017/03/22,01:30,0.991,1.614,1.103,1.913,1.316,0.539,0.989,0.918,�k�k��,7.5,��
2017/03/22,01:40,0.992,1.616,1.103,1.912,1.318,0.540,0.988,0.917,�k�k��,8.5,��
2017/03/22,01:50,0.989,1.614,1.103,1.916,1.315,0.538,0.987,0.916,�k�k��,7.7,��
2017/03/22,02:00,0.990,1.618,1.104,1.916,1.318,0.539,0.989,0.920,�k�k��,7.5,��
2017/03/22,02:10,0.991,1.614,1.103,1.916,1.317,0.541,0.989,0.920,�k�k��,8.3,��
2017/03/22,02:20,0.992,1.617,1.104,1.915,1.316,0.539,0.988,0.920,�k�k��,7.4,��
2017/03/22,02:30,0.992,1.620,1.104,1.915,1.318,0.541,0.988,0.919,�k�k��,6.6,��
2017/03/22,02:40,0.992,1.616,1.103,1.917,1.318,0.540,0.987,0.918,�k�k��,6.7,��
2017/03/22,02:50,0.991,1.616,1.104,1.915,1.319,0.539,0.987,0.918,�k�k��,7.8,��
2017/03/22,03:00,0.991,1.620,1.106,1.918,1.317,0.539,0.987,0.920,�k��,9.2,��
2017/03/22,03:10,0.991,1.617,1.104,1.920,1.318,0.540,0.990,0.918,�k��,8.1,��
2017/03/22,03:20,0.990,1.621,1.108,1.917,1.318,0.540,0.988,0.917,�k�k��,7.3,��
2017/03/22,03:30,0.991,1.618,1.105,1.917,1.318,0.540,0.990,0.917,�k��,8.1,��
2017/03/22,03:40,0.992,1.619,1.106,1.920,1.321,0.539,0.990,0.920,�k��,10.2,��
2017/03/22,03:50,0.992,1.619,1.105,1.919,1.319,0.539,0.989,0.920,�k��,10.3,��
2017/03/22,04:00,0.990,1.617,1.108,1.919,1.320,0.540,0.990,0.918,���k��,12.4,��
2017/03/22,04:10,0.990,1.620,1.107,1.918,1.319,0.542,0.990,0.920,���k��,13.9,��
2017/03/22,04:20,0.993,1.621,1.106,1.925,1.319,0.540,0.991,0.920,�k��,12.8,��
2017/03/22,04:30,0.992,1.622,1.106,1.924,1.321,0.539,0.992,0.921,�k��,13.6,��
2017/03/22,04:40,0.994,1.622,1.105,1.925,1.321,0.539,0.989,0.919,�k��,14.1,��
2017/03/22,04:50,0.990,1.624,1.105,1.925,1.322,0.538,0.991,0.920,�k��,11.6,��
2017/03/22,05:00,0.994,1.621,1.105,1.928,1.324,0.537,0.990,0.921,�k��,10.5,��
2017/03/22,05:10,0.990,1.624,1.106,1.925,1.325,0.538,0.990,0.919,�k��,9.8,��
2017/03/22,05:20,0.992,1.622,1.109,1.928,1.321,0.538,0.990,0.919,�k��,10.9,��
2017/03/22,05:30,0.992,1.622,1.107,1.927,1.322,0.540,0.989,0.920,�k��,10.5,��
2017/03/22,05:40,0.992,1.624,1.106,1.926,1.324,0.539,0.991,0.920,�k��,10.3,��
2017/03/22,05:50,0.991,1.624,1.107,1.926,1.324,0.539,0.991,0.922,�k�k��,10.3,��
2017/03/22,06:00,0.993,1.625,1.109,1.928,1.325,0.540,0.992,0.922,�k�k��,8.9,��
2017/03/22,06:10,0.993,1.627,1.109,1.927,1.322,0.540,0.993,0.922,�k�k��,10.0,��
2017/03/22,06:20,0.992,1.630,1.110,1.930,1.324,0.540,0.994,0.920,�k�k��,10.2,��
2017/03/22,06:30,0.993,1.628,1.110,1.933,1.326,0.541,0.990,0.921,�k�k��,10.7,��
2017/03/22,06:40,0.995,1.629,1.109,1.930,1.327,0.540,0.992,0.922,�k�k��,10.7,��
2017/03/22,06:50,0.994,1.630,1.111,1.931,1.329,0.540,0.992,0.923,�k�k��,9.7,��
2017/03/22,07:00,0.996,1.631,1.112,1.935,1.327,0.540,0.992,0.923,�k�k��,10.2,��
2017/03/22,07:10,0.994,1.629,1.111,1.931,1.329,0.540,0.993,0.923,�k��,9.2,��
2017/03/22,07:20,0.998,1.627,1.112,1.934,1.327,0.540,0.995,0.922,�k��,8.6,��
2017/03/22,07:30,0.994,1.629,1.111,1.936,1.327,0.540,0.992,0.922,�k��,9.4,��
2017/03/22,07:40,0.995,1.631,1.112,1.935,1.331,0.541,0.991,0.923,�k�k��,8.5,��
2017/03/22,07:50,0.995,1.634,1.113,1.935,1.329,0.541,0.991,0.924,�k�k��,9.2,��
2017/03/22,08:00,0.997,1.633,1.112,1.934,1.329,0.541,0.993,0.923,�k�k��,11.7,��
2017/03/22,08:10,0.997,1.638,1.115,1.938,1.329,0.541,0.994,0.923,�k�k��,14.4,��
2017/03/22,08:20,1.000,1.633,1.111,1.939,1.333,0.540,0.994,0.924,�k�k��,12.4,��
2017/03/22,08:30,1.000,1.636,1.113,1.939,1.334,0.540,0.993,0.924,�k�k��,8.3,��
2017/03/22,08:40,0.999,1.638,1.114,1.940,1.333,0.541,0.993,0.924,�k�k��,9.9,��
2017/03/22,08:50,1.000,1.636,1.116,1.940,1.332,0.541,0.995,0.926,�k�k��,11.4,��
2017/03/22,09:00,1.001,1.638,1.115,1.941,1.334,0.541,0.992,0.926,�k�k��,12.2,��
2017/03/22,09:10,1.003,1.640,1.117,1.938,1.336,0.542,0.994,0.924,�k�k��,11.7,��
2017/03/22,09:20,1.002,1.639,1.117,1.942,1.334,0.541,0.992,0.925,�k�k��,12.5,��
2017/03/22,09:30,1.002,1.639,1.117,1.943,1.337,0.541,0.995,0.925,�k�k��,11.6,��
2017/03/22,09:40,1.002,1.640,1.120,1.944,1.334,0.543,0.995,0.926,�k��,13.0,��
2017/03/22,09:50,1.003,1.641,1.119,1.945,1.338,0.542,0.994,0.925,�k�k��,14.4,��
2017/03/22,10:00,1.002,1.644,1.117,1.945,1.338,0.543,0.995,0.924,�k��,14.6,��
2017/03/22,10:10,1.005,1.601,1.118,1.946,1.340,0.542,0.996,0.926,�k��,13.1,��
2017/03/22,10:20,1.005,1.642,1.120,1.947,1.343,0.544,0.995,0.926,�k��,12.4,��
2017/03/22,10:30,1.006,1.647,1.121,1.948,1.342,0.541,0.997,0.925,�k��,13.8,��
2017/03/22,10:40,1.008,1.647,1.121,1.953,1.342,0.542,0.996,0.925,�k��,12.4,��
2017/03/22,10:50,1.008,1.642,1.122,1.952,1.336,0.540,0.996,0.925,�k��,12.5,��
2017/03/22,11:00,1.010,1.648,1.123,1.953,1.345,0.542,0.996,0.925,�k��,13.0,��
2017/03/22,11:10,1.009,1.651,1.123,1.954,1.346,0.543,0.995,0.924,�k��,13.6,��
2017/03/22,11:20,1.008,1.651,1.123,1.954,1.349,0.541,0.995,0.922,�k��,10.2,��
2017/03/22,11:30,1.010,1.646,1.124,1.954,1.349,0.543,0.995,0.924,�k��,9.8,��
2017/03/22,11:40,1.011,1.651,1.123,1.954,1.347,0.543,0.996,0.925,�k��,11.5,��
2017/03/22,11:50,1.012,1.653,1.127,1.957,1.349,0.546,0.996,0.924,�k��,9.7,��
2017/03/22,12:00,1.011,1.654,1.124,1.958,1.349,0.544,0.993,0.926,�k��,12.1,��
2017/03/22,12:10,1.012,1.656,1.128,1.955,1.352,0.543,0.995,0.927,�k��,13.0,��
2017/03/22,12:20,1.012,1.656,1.127,1.959,1.351,0.544,0.996,0.927,�k��,11.7,��
2017/03/22,12:30,1.010,1.657,1.124,1.957,1.350,0.545,0.996,0.926,�k��,8.7,��
2017/03/22,12:40,1.014,1.656,1.128,1.960,1.350,0.545,0.997,0.927,�k��,9.6,��
2017/03/22,12:50,1.013,1.656,1.131,1.959,1.356,0.545,0.994,0.926,�k��,8.1,��
2017/03/22,13:00,1.011,1.658,1.132,1.960,1.353,0.546,0.995,0.925,�k��,9.9,��
2017/03/22,13:10,1.013,1.657,1.129,1.964,1.356,0.546,0.995,0.926,�k��,8.6,��
2017/03/22,13:20,1.012,1.658,1.132,1.962,1.353,0.547,0.992,0.927,�k��,9.4,��
2017/03/22,13:30,1.015,1.661,1.133,1.964,1.355,0.544,0.995,0.925,�k��,10.5,��
2017/03/22,13:40,1.013,1.659,1.130,1.965,1.355,0.547,0.992,0.927,�k��,9.0,��
2017/03/22,13:50,1.016,1.659,1.133,1.965,1.356,0.544,0.990,0.926,���k��,9.7,��
2017/03/22,14:00,1.016,1.662,1.132,1.964,1.355,0.545,0.991,0.924,�k��,12.1,��
2017/03/22,14:10,1.013,1.662,1.131,1.965,1.357,0.546,0.992,0.925,���k��,7.9,��
2017/03/22,14:20,1.016,1.661,1.133,1.966,1.358,0.547,0.989,0.927,�k��,9.6,��
2017/03/22,14:30,1.016,1.664,1.132,1.965,1.357,0.546,0.993,0.929,�k��,10.0,��
2017/03/22,14:40,1.016,1.660,1.133,1.966,1.357,0.545,0.989,0.926,�k��,9.5,��
2017/03/22,14:50,1.018,1.666,1.134,1.966,1.357,0.546,0.990,0.928,�k��,11.6,��
2017/03/22,15:00,1.018,1.666,1.130,1.964,1.361,0.546,0.993,0.927,�k��,12.2,��
2017/03/22,15:10,1.016,1.663,1.131,1.967,1.360,0.546,0.992,0.926,�k��,11.4,��
2017/03/22,15:20,1.012,1.665,1.134,1.970,1.357,0.548,0.994,0.926,�k�k��,7.3,��
2017/03/22,15:30,1.016,1.665,1.134,1.965,1.351,0.548,0.994,0.926,�k�k��,6.8,��
2017/03/22,15:40,1.014,1.666,1.132,1.968,1.359,0.546,0.992,0.925,�k��,8.6,��
2017/03/22,15:50,1.015,1.663,1.134,1.966,1.357,0.546,0.990,0.926,�k�k��,6.9,��
2017/03/22,16:00,1.016,1.665,1.132,1.964,1.357,0.547,0.993,0.927,�k��,8.8,��
2017/03/22,16:10,1.016,1.668,1.135,1.967,1.351,0.546,0.995,0.928,�k��,13.0,��
2017/03/22,16:20,1.019,1.668,1.137,1.970,1.344,0.544,0.995,0.929,�k��,11.8,��
2017/03/22,16:30,1.019,1.670,1.138,1.969,1.338,0.546,0.998,0.930,�k��,8.6,��
2017/03/22,16:40,1.017,1.669,1.134,1.969,1.332,0.547,0.998,0.930,�k��,7.7,��
2017/03/22,16:50,1.019,1.671,1.135,1.967,1.359,0.545,0.998,0.928,�k��,9.6,��
2017/03/22,17:00,1.020,1.673,1.137,1.970,1.356,0.544,0.996,0.929,�k��,12.8,��
2017/03/22,17:10,1.019,1.673,1.135,1.970,1.342,0.543,0.996,0.929,�k��,10.0,��
2017/03/22,17:20,1.017,1.670,1.133,1.970,1.363,0.545,0.996,0.929,�k��,9.4,��
2017/03/22,17:30,1.017,1.669,1.135,1.969,1.359,0.547,0.996,0.929,�k��,7.0,��
2017/03/22,17:40,1.018,1.670,1.132,1.967,1.361,0.547,0.999,0.929,�k��,7.2,��
2017/03/22,17:50,1.018,1.670,1.134,1.973,1.362,0.547,1.000,0.928,�k��,7.5,��
2017/03/22,18:00,1.017,1.669,1.135,1.969,1.361,0.545,0.999,0.930,�k��,8.5,��
2017/03/22,18:10,1.018,1.669,1.136,1.970,1.362,0.546,1.002,0.928,�k��,7.3,��
2017/03/22,18:20,1.018,1.669,1.136,1.970,1.362,0.546,1.000,0.930,�k��,8.8,��
2017/03/22,18:30,1.019,1.668,1.133,1.967,1.361,0.545,1.000,0.930,�k��,9.3,��
2017/03/22,18:40,1.018,1.671,1.133,1.969,1.360,0.545,0.999,0.928,���k��,5.7,��
2017/03/22,18:50,1.017,1.669,1.134,1.968,1.363,0.545,1.001,0.928,��,5.8,��
2017/03/22,19:00,1.017,1.669,1.133,1.968,1.359,0.545,0.999,0.927,��,6.5,��
2017/03/22,19:10,1.017,1.667,1.134,1.967,1.362,0.544,0.998,0.929,��,7.2,��
2017/03/22,19:20,1.016,1.668,1.132,1.968,1.361,0.543,1.000,0.928,��,5.8,��
2017/03/22,19:30,1.016,1.668,1.131,1.969,1.365,0.545,0.999,0.927,��,6.3,��
2017/03/22,19:40,1.015,1.670,1.131,1.970,1.359,0.545,1.001,0.930,��,6.0,��
2017/03/22,19:50,1.013,1.670,1.131,1.970,1.357,0.546,1.000,0.928,��,5.6,��
2017/03/22,20:00,1.016,1.669,1.133,1.969,1.361,0.544,1.001,0.926,��,5.9,��
2017/03/22,20:10,1.015,1.669,1.131,1.967,1.359,0.546,1.002,0.927,��,6.3,��
2017/03/22,20:20,1.011,1.671,1.133,1.969,1.362,0.543,0.999,0.930,���k��,6.8,��
2017/03/22,20:30,1.014,1.670,1.133,1.969,1.361,0.545,0.999,0.929,���k��,6.6,��
2017/03/22,20:40,1.015,1.667,1.132,1.970,1.360,0.544,1.001,0.928,�k��,7.7,��
2017/03/22,20:50,1.015,1.670,1.131,1.972,1.363,0.545,1.000,0.929,�k��,8.5,��
2017/03/22,21:00,1.015,1.671,1.131,1.967,1.363,0.544,0.999,0.928,�k��,6.1,��
2017/03/22,21:10,1.014,1.664,1.132,1.969,1.364,0.542,0.999,0.928,�k��,6.4,��
2017/03/22,21:20,1.015,1.671,1.133,1.973,1.362,0.543,1.000,0.930,�k��,7.4,��
2017/03/22,21:30,1.014,1.668,1.132,1.971,1.361,0.543,0.998,0.929,�k��,5.6,��
2017/03/22,21:40,1.015,1.669,1.132,1.972,1.362,0.542,1.000,0.928,�k��,4.4,��
2017/03/22,21:50,1.016,1.669,1.131,1.969,1.360,0.542,0.999,0.929,�k��,3.9,��
2017/03/22,22:00,1.015,1.668,1.133,1.967,1.363,0.543,1.001,0.928,�k��,3.2,��
2017/03/22,22:10,1.016,1.669,1.133,1.966,1.364,0.544,1.000,0.929,���k��,2.9,��
2017/03/22,22:20,1.011,1.669,1.131,1.968,1.362,0.544,0.998,0.927,���k��,3.3,��
2017/03/22,22:30,1.015,1.669,1.131,1.968,1.360,0.543,0.999,0.929,��,2.6,��
2017/03/22,22:40,1.013,1.668,1.131,1.970,1.359,0.542,0.999,0.930,���쐼,2.6,��
2017/03/22,22:50,1.015,1.666,1.131,1.965,1.362,0.544,0.997,0.928,��,4.4,��
2017/03/22,23:00,1.012,1.670,1.132,1.968,1.362,0.543,0.997,0.926,��,4.1,��
2017/03/22,23:10,1.015,1.666,1.128,1.969,1.359,0.543,0.998,0.928,���k��,4.7,��
2017/03/22,23:20,1.014,1.668,1.133,1.967,1.360,0.544,0.999,0.929,���k��,5.3,��
2017/03/22,23:30,1.013,1.666,1.131,1.969,1.357,0.543,0.997,0.925,��,4.8,��
2017/03/22,23:40,1.012,1.666,1.129,1.968,1.358,0.543,0.998,0.926,��,5.6,��
2017/03/22,23:50,1.013,1.667,1.130,1.968,1.359,0.544,0.998,0.927,���쐼,6.0,��
